{"data":{"norad_id":59750,"epoch":"2026-09-21T02:46:05.402784Z","epoch_age_seconds":118224,"freshness":"FRESH","line1":"1 59750U 24090W   26264.11534031 -.00000671  00000+0 -14878-4 0  9996","line2":"2 59750  43.0039 160.2015 0000731 288.9805  71.0967 15.27571404133310","mean_motion":15.27571404,"eccentricity":7.31e-5,"inclination_deg":43.0039,"raan_deg":160.2015,"arg_perigee_deg":288.9805,"mean_anomaly_deg":71.0967,"bstar":-1.4878e-5,"rev_number":13331,"period_min":94.267279174598,"perigee_km":482.57328109156,"apogee_km":483.57639026194,"semimajor_km":6861.2118356767,"source":"CELESTRAK","updated_at":"2026-09-22T09:00:49.066105Z"}}